Home   Weather   Nagasaki   Past weeks
Flag for Japan

Past Weather in Nagasaki, Japan — Yesterday and Last 2 Weeks

Now
54 °F

Clear.


Feels Like: 51 °F
Forecast: 64 / 49 °F
Wind: 9 mph from Northwest

Location: Nagasaki Airport

Current Time: Apr 7, 2020 at 9:48:20 pm

Latest Report: Apr 7, 2020 at 9:00 pm


Visibility: 10 mi

Pressure: 30.01 "Hg

Humidity: 72%

Dew Point: 45 °F

Location of NagasakiLocation

Past Weather in Nagasaki — Graph

°F

Nagasaki Temperature Yesterday

Maximum temperature yesterday: 64 °F (at 3:00 pm)
Minimum temperature yesterday: 41 °F (at 6:10 am)
Average temperature yesterday: 56 °F

High & Low Weather Summary for the Past Weeks

 TemperatureHumidityPressure
High68 °F (Mar 25, 3:00 pm)100% (Mar 26, 2:37 pm)30.18 "Hg (Mar 26, 2:37 pm)
Low41 °F (Apr 6, 6:10 am)16% (Apr 6, 2:00 pm)29.71 "Hg (Apr 1, 6:10 am)
Average58 °F71%30.01 "Hg
* Reported Mar 23 8:00 pm — Apr 7 8:00 pm, Nagasaki. Weather by CustomWeather, © 2020

Note: Actual official high and low records may vary slightly from our data, if they occured in-between our weather recording intervals... More about our weather records

Nagasaki Weather History for the Previous 24 Hours

Scroll right to see more
 ConditionsComfort  
Time TempWeatherWind HumidityBarometerVisibility
8:00 pm
Tue, Apr 7
55 °FClear.9 mph67%29.98 "Hg10 mi
7:00 pm57 °FClear.13 mph63%29.98 "Hg10 mi
6:00 pm63 °FSunny.9 mph42%29.95 "Hg10 mi
5:00 pm64 °FPassing clouds.10 mph46%29.95 "HgN/A
4:00 pm64 °FPassing clouds.13 mph46%29.95 "HgN/A
3:00 pm66 °FPassing clouds.13 mph43%29.95 "HgN/A
2:00 pm64 °FPassing clouds.9 mph46%29.95 "HgN/A
1:00 pm64 °FPassing clouds.7 mph49%29.98 "HgN/A
12:00 pm63 °FPassing clouds.5 mph52%30.01 "HgN/A
11:00 am63 °FPassing clouds.3 mph49%30.01 "HgN/A
10:00 am61 °FPassing clouds.8 mph55%30.01 "HgN/A
9:00 am57 °FPassing clouds.7 mph59%30.01 "HgN/A
8:00 am54 °FPartly sunny.7 mph72%30.01 "HgN/A
7:00 am50 °FPartly sunny.6 mph82%30.01 "HgN/A
6:10 am50 °FSunny.1 mph71%30.01 "Hg10 mi
9:00 pm
Mon, Apr 6
55 °FClear.3 mph47%30.07 "Hg10 mi
Weather by CustomWeather, © 2020

See weather overview

Advertising